QPF
0.00 0.00 0.00 0.00 0.00 0.00 0.00 0.00 0.00 0.00 0.00 0.00 0.00 0.00 0.00 0.00 0.00 0.00 0.00 0.00 0.00 0.00 0.00 0.00 0.00 0.00 0.00 0.00 0.00 0.00 0.00 0.00 0.01 0.00 0.00 0.00 0.00 0.00 0.01 0.02 0.03 0.05 0.07 0.11
0.00 0.00 0.00 0.00 0.00 0.00 0.00 0.00 0.00 0.00 0.00 0.00 0.00 0.00 0.00 0.00 0.00 0.00 0.00 0.00 0.00 0.00 0.00 0.00 0.00 0.00 0.00 0.00 0.00 0.00 0.00 0.01 0.01 0.01 0.00 0.00 0.00 0.00 0.00 0.00 0.01 0.02 0.04 0.06
0.00 0.00 0.00 0.00 0.00 0.00 0.00 0.00 0.00 0.00 0.01 0.01 0.01 0.01 0.01 0.00 0.00 0.00 0.00 0.00 0.00 0.00 0.00 0.00 0.00 0.00 0.00 0.00 0.00 0.00 0.00 0.01 0.01 0.01 0.00 0.00 0.00 0.00 0.00 0.00 0.00 0.01 0.01 0.01
0.00 0.00 0.00 0.00 0.00 0.00 0.00 0.01 0.01 0.01 0.02 0.02 0.02 0.02 0.01 0.00 0.00 0.00 0.00 0.00 0.00 0.00 0.00 0.00 0.00 0.00 0.00 0.00 0.01 0.01 0.01 0.01 0.02 0.01 0.00 0.00 0.00 0.00 0.00 0.00 0.00 0.00 0.00 0.00
0.00 0.00 0.00 0.00 0.00 0.01 0.01 0.01 0.01 0.02 0.02 0.02 0.02 0.01 0.01 0.00 0.00 0.00 0.00 0.00 0.00 0.00 0.00 0.00 0.00 0.01 0.01 0.02 0.02 0.03 0.03 0.02 0.02 0.01 0.00 0.00 0.00 0.00 0.00 0.00 0.00 0.00 0.00 0.00
0.00 0.00 0.01 0.01 0.01 0.03 0.03 0.04 0.03 0.03 0.02 0.02 0.01 0.01 0.01 0.00 0.00 0.00 0.00 0.00 0.00 0.00 0.00 0.01 0.01 0.02 0.03 0.04 0.05 0.06 0.06 0.05 0.04 0.02 0.01 0.00 0.00 0.00 0.00 0.00 0.00 0.01 0.00 0.00
0.01 0.03 0.03 0.02 0.02 0.03 0.06 0.07 0.03 0.02 0.02 0.02 0.02 0.02 0.01 0.00 0.01 0.01 0.00 0.00 0.01 0.01 0.01 0.01 0.03 0.04 0.06 0.07 0.08 0.09 0.10 0.10 0.09 0.05 0.02 0.01 0.00 0.00 0.00 0.00 0.01 0.01 0.01 0.00
0.02 0.04 0.06 0.02 0.02 0.02 0.02 0.01 0.01 0.01 0.01 0.01 0.01 0.01 0.01 0.00 0.00 0.00 0.00 0.00 0.01 0.02 0.03 0.04 0.06 0.09 0.12 0.12 0.13 0.15 0.15 0.14 0.13 0.10 0.06 0.02 0.01 0.00 0.00 0.00 0.00 0.01 0.01 0.01
0.03 0.04 0.01 0.00 0.00 0.01 0.00 0.00 0.01 0.01 0.01 0.01 0.01 0.01 0.00 0.00 0.00 0.00 0.00 0.00 0.00 0.01 0.02 0.04 0.07 0.14 0.20 0.23 0.24 0.23 0.19 0.17 0.16 0.13 0.09 0.05 0.03 0.01 0.01 0.01 0.00 0.01 0.01 0.01
0.02 0.01 0.00 0.00 0.00 0.00 0.00 0.00 0.00 0.00 0.00 0.00 0.00 0.00 0.00 0.00 0.00 0.00 0.01 0.00 0.00 0.00 0.01 0.01 0.04 0.13 0.26 0.32 0.31 0.27 0.21 0.17 0.17 0.15 0.11 0.08 0.05 0.03 0.02 0.01 0.00 0.01 0.01 0.00
0.01 0.00 0.00 0.00 0.00 0.00 0.00 0.00 0.00 0.00 0.00 0.00 0.00 0.00 0.00 0.00 0.00 0.00 0.00 0.00 0.00 0.00 0.00 0.00 0.01 0.06 0.21 0.33 0.34 0.30 0.23 0.17 0.15 0.15 0.12 0.08 0.06 0.05 0.04 0.02 0.01 0.00 0.00 0.00
0.00 0.00 0.00 0.00 0.00 0.00 0.00 0.00 0.00 0.00 0.00 0.00 0.00 0.00 0.00 0.00 0.00 0.00 0.00 0.00 0.00 0.00 0.00 0.00 0.01 0.02 0.09 0.25 0.40 0.40 0.32 0.25 0.19 0.14 0.13 0.10 0.07 0.05 0.04 0.03 0.01 0.00 0.00 0.00
0.00 0.00 0.00 0.00 0.00 0.00 0.00 0.00 0.00 0.00 0.00 0.00 0.00 0.00 0.00 0.00 0.00 0.00 0.00 0.00 0.00 0.00 0.00 0.00 0.00 0.01 0.03 0.12 0.33 0.52 0.50 0.37 0.28 0.20 0.14 0.10 0.07 0.04 0.02 0.02 0.02 0.01 0.00 0.00
0.00 0.00 0.00 0.00 0.00 0.00 0.00 0.00 0.00 0.00 0.00 0.00 0.00 0.00 0.00 0.00 0.00 0.00 0.00 0.00 0.00 0.00 0.00 0.00 0.00 0.01 0.02 0.06 0.19 0.43 0.57 0.52 0.41 0.31 0.21 0.12 0.06 0.03 0.01 0.01 0.01 0.00 0.00 0.00
0.00 0.00 0.00 0.00 0.00 0.00 0.00 0.00 0.00 0.00 0.00 0.00 0.00 0.00 0.00 0.00 0.00 0.00 0.00 0.00 0.00 0.00 0.00 0.00 0.00 0.01 0.02 0.04 0.09 0.28 0.47 0.51 0.46 0.39 0.29 0.17 0.08 0.03 0.01 0.01 0.01 0.01 0.00 0.00
0.00 0.00 0.00 0.00 0.00 0.00 0.00 0.00 0.00 0.00 0.00 0.00 0.00 0.00 0.01 0.01 0.01 0.01 0.01 0.01 0.01 0.01 0.00 0.00 0.00 0.01 0.02 0.02 0.05 0.16 0.33 0.39 0.40 0.38 0.32 0.22 0.11 0.04 0.01 0.01 0.01 0.01 0.00 0.00
0.00 0.00 0.00 0.00 0.00 0.00 0.00 0.00 0.00 0.00 0.00 0.00 0.01 0.01 0.02 0.02 0.03 0.03 0.02 0.02 0.02 0.02 0.01 0.01 0.00 0.01 0.02 0.02 0.03 0.11 0.25 0.29 0.29 0.30 0.28 0.21 0.11 0.04 0.01 0.01 0.01 0.01 0.00 0.00
0.00 0.00 0.00 0.00 0.00 0.00 0.00 0.00 0.00 0.00 0.01 0.02 0.03 0.04 0.04 0.05 0.06 0.06 0.05 0.04 0.03 0.02 0.01 0.01 0.01 0.01 0.02 0.01 0.03 0.11 0.23 0.25 0.21 0.21 0.20 0.16 0.09 0.04 0.02 0.01 0.01 0.00 0.00 0.00
0.00 0.00 0.00 0.00 0.00 0.00 0.00 0.00 0.00 0.01 0.03 0.06 0.09 0.09 0.08 0.08 0.08 0.08 0.07 0.07 0.06 0.03 0.01 0.01 0.01 0.01 0.01 0.02 0.04 0.12 0.23 0.24 0.17 0.14 0.14 0.11 0.07 0.03 0.02 0.01 0.01 0.01 0.00 0.00
0.00 0.00 0.00 0.00 0.00 0.00 0.00 0.00 0.01 0.04 0.08 0.13 0.15 0.14 0.14 0.11 0.09 0.09 0.09 0.07 0.04 0.03 0.02 0.01 0.01 0.01 0.02 0.02 0.05 0.15 0.25 0.23 0.14 0.10 0.09 0.08 0.04 0.02 0.01 0.01 0.01 0.01 0.00 0.00
0.00 0.00 0.00 0.00 0.00 0.00 0.00 0.01 0.04 0.10 0.17 0.19 0.18 0.18 0.17 0.13 0.10 0.10 0.09 0.06 0.02 0.02 0.02 0.01 0.01 0.02 0.02 0.03 0.07 0.17 0.25 0.22 0.14 0.07 0.05 0.04 0.02 0.02 0.01 0.01 0.01 0.01 0.00 0.00
0.00 0.00 0.00 0.00 0.00 0.00 0.00 0.02 0.05 0.13 0.23 0.23 0.19 0.17 0.16 0.15 0.11 0.07 0.04 0.03 0.02 0.01 0.02 0.02 0.03 0.03 0.02 0.03 0.07 0.16 0.21 0.21 0.14 0.07 0.03 0.02 0.01 0.01 0.01 0.01 0.00 0.00 0.00 0.00
0.00 0.00 0.00 0.00 0.00 0.00 0.00 0.01 0.05 0.15 0.27 0.27 0.23 0.18 0.16 0.14 0.10 0.06 0.03 0.02 0.03 0.03 0.04 0.05 0.04 0.03 0.02 0.03 0.08 0.15 0.20 0.20 0.13 0.05 0.02 0.01 0.01 0.01 0.01 0.00 0.00 0.00 0.00 0.00
0.00 0.00 0.00 0.00 0.00 0.00 0.01 0.02 0.05 0.13 0.23 0.24 0.20 0.15 0.13 0.11 0.09 0.06 0.05 0.05 0.06 0.07 0.07 0.06 0.04 0.03 0.04 0.06 0.10 0.15 0.19 0.15 0.08 0.03 0.01 0.00 0.00 0.00 0.00 0.00 0.00 0.00 0.00 0.00
0.00 0.00 0.00 0.00 0.01 0.02 0.03 0.04 0.06 0.14 0.26 0.26 0.20 0.14 0.11 0.10 0.09 0.06 0.06 0.06 0.05 0.05 0.05 0.04 0.03 0.04 0.06 0.09 0.12 0.15 0.15 0.09 0.04 0.01 0.00 0.00 0.00 0.00 0.00 0.00 0.00 0.00 0.00 0.00
0.00 0.00 0.00 0.01 0.02 0.02 0.03 0.05 0.09 0.17 0.33 0.35 0.27 0.15 0.10 0.09 0.09 0.07 0.08 0.08 0.06 0.05 0.04 0.04 0.04 0.05 0.07 0.10 0.12 0.11 0.08 0.04 0.01 0.01 0.00 0.00 0.00 0.00 0.00 0.00 0.00 0.00 0.00 0.00
0.00 0.00 0.00 0.01 0.01 0.02 0.03 0.04 0.07 0.16 0.31 0.39 0.31 0.16 0.10 0.08 0.08 0.08 0.10 0.11 0.10 0.08 0.07 0.06 0.05 0.05 0.07 0.08 0.08 0.06 0.03 0.01 0.01 0.00 0.00 0.00 0.00 0.00 0.00 0.00 0.00 0.00 0.00 0.00
MSLP
1015.35 1015.49 1015.65 1015.81 1015.98 1016.13 1016.23 1016.26 1016.19 1016.01 1015.74 1015.39 1014.99 1014.58 1014.19 1013.83 1013.52 1013.24 1012.97 1012.67 1012.33 1011.90 1011.38 1010.78 1010.13 1009.45 1008.81 1008.25 1007.83 1007.56 1007.46 1007.54 1007.76 1008.08 1008.46 1008.84 1009.17 1009.41 1009.53 1009.52 1009.40 1009.18 1008.89 1008.59
1015.31 1015.48 1015.65 1015.83 1016.00 1016.16 1016.28 1016.36 1016.37 1016.31 1016.17 1015.98 1015.73 1015.45 1015.16 1014.86 1014.56 1014.24 1013.88 1013.47 1012.99 1012.42 1011.77 1011.04 1010.26 1009.47 1008.72 1008.05 1007.52 1007.15 1006.95 1006.95 1007.11 1007.40 1007.80 1008.23 1008.65 1009.02 1009.30 1009.46 1009.51 1009.45 1009.30 1009.11
1015.35 1015.58 1015.81 1016.03 1016.26 1016.46 1016.64 1016.78 1016.87 1016.90 1016.85 1016.75 1016.58 1016.36 1016.09 1015.78 1015.43 1015.03 1014.57 1014.05 1013.46 1012.78 1012.04 1011.23 1010.38 1009.53 1008.71 1007.98 1007.36 1006.90 1006.61 1006.51 1006.59 1006.84 1007.21 1007.66 1008.14 1008.61 1009.01 1009.32 1009.53 1009.62 1009.61 1009.54
1015.59 1015.88 1016.17 1016.46 1016.75 1017.02 1017.25 1017.44 1017.57 1017.64 1017.62 1017.53 1017.36 1017.11 1016.79 1016.41 1015.97 1015.47 1014.92 1014.31 1013.63 1012.91 1012.12 1011.30 1010.45 1009.60 1008.77 1008.01 1007.35 1006.82 1006.45 1006.25 1006.24 1006.40 1006.72 1007.15 1007.65 1008.17 1008.66 1009.09 1009.42 1009.65 1009.77 1009.80
1016.06 1016.39 1016.73 1017.08 1017.41 1017.71 1017.97 1018.17 1018.30 1018.34 1018.28 1018.13 1017.89 1017.55 1017.13 1016.64 1016.09 1015.50 1014.86 1014.18 1013.48 1012.75 1012.00 1011.22 1010.43 1009.63 1008.85 1008.10 1007.43 1006.86 1006.42 1006.13 1006.02 1006.08 1006.31 1006.69 1007.16 1007.70 1008.24 1008.74 1009.17 1009.51 1009.74 1009.88
1016.74 1017.08 1017.44 1017.79 1018.13 1018.42 1018.65 1018.81 1018.87 1018.83 1018.68 1018.42 1018.06 1017.59 1017.04 1016.43 1015.78 1015.09 1014.40 1013.70 1013.02 1012.33 1011.65 1010.97 1010.27 1009.57 1008.87 1008.18 1007.52 1006.93 1006.43 1006.06 1005.85 1005.81 1005.94 1006.23 1006.66 1007.17 1007.72 1008.27 1008.77 1009.20 1009.53 1009.76
1017.54 1017.85 1018.18 1018.49 1018.77 1019.00 1019.15 1019.21 1019.16 1019.00 1018.72 1018.32 1017.81 1017.21 1016.54 1015.82 1015.07 1014.33 1013.61 1012.93 1012.28 1011.68 1011.10 1010.53 1009.96 1009.38 1008.77 1008.15 1007.53 1006.93 1006.40 1005.96 1005.66 1005.51 1005.54 1005.74 1006.09 1006.56 1007.10 1007.67 1008.23 1008.72 1009.14 1009.46
1018.35 1018.60 1018.84 1019.06 1019.23 1019.34 1019.36 1019.28 1019.10 1018.79 1018.37 1017.83 1017.19 1016.47 1015.69 1014.89 1014.09 1013.32 1012.60 1011.95 1011.37 1010.85 1010.38 1009.93 1009.49 1009.02 1008.51 1007.96 1007.38 1006.80 1006.24 1005.75 1005.36 1005.13 1005.06 1005.17 1005.45 1005.87 1006.39 1006.97 1007.55 1008.11 1008.61 1009.02
1019.07 1019.22 1019.33 1019.41 1019.43 1019.38 1019.24 1019.01 1018.67 1018.22 1017.66 1017.00 1016.26 1015.46 1014.62 1013.77 1012.95 1012.18 1011.48 1010.88 1010.36 1009.92 1009.55 1009.20 1008.85 1008.48 1008.05 1007.57 1007.03 1006.46 1005.89 1005.36 1004.92 1004.62 1004.47 1004.51 1004.72 1005.09 1005.59 1006.18 1006.80 1007.41 1007.98 1008.49
1019.61 1019.63 1019.59 1019.50 1019.34 1019.11 1018.81 1018.41 1017.93 1017.36 1016.70 1015.96 1015.16 1014.31 1013.45 1012.60 1011.78 1011.03 1010.37 1009.80 1009.34 1008.96 1008.64 1008.36 1008.08 1007.77 1007.41 1006.97 1006.46 1005.91 1005.34 1004.80 1004.33 1003.97 1003.77 1003.76 1003.92 1004.26 1004.75 1005.34 1006.00 1006.67 1007.32 1007.93
1019.92 1019.79 1019.60 1019.33 1018.99 1018.58 1018.11 1017.58 1016.98 1016.31 1015.59 1014.81 1013.99 1013.14 1012.29 1011.45 1010.66 1009.94 1009.31 1008.77 1008.33 1007.98 1007.70 1007.45 1007.20 1006.92 1006.59 1006.19 1005.71 1005.18 1004.62 1004.08 1003.59 1003.22 1003.00 1002.95 1003.09 1003.41 1003.90 1004.51 1005.20 1005.93 1006.66 1007.36
1020.00 1019.73 1019.37 1018.93 1018.42 1017.86 1017.25 1016.60 1015.92 1015.20 1014.44 1013.66 1012.85 1012.02 1011.20 1010.39 1009.63 1008.94 1008.32 1007.79 1007.36 1007.01 1006.73 1006.48 1006.24 1005.97 1005.65 1005.26 1004.81 1004.30 1003.77 1003.24 1002.77 1002.40 1002.18 1002.13 1002.26 1002.58 1003.07 1003.71 1004.44 1005.23 1006.03 1006.81
1019.88 1019.48 1018.97 1018.38 1017.73 1017.04 1016.33 1015.60 1014.86 1014.11 1013.35 1012.57 1011.78 1010.99 1010.19 1009.42 1008.68 1007.99 1007.38 1006.85 1006.40 1006.03 1005.73 1005.46 1005.21 1004.94 1004.63 1004.26 1003.83 1003.36 1002.86 1002.36 1001.92 1001.58 1001.36 1001.32 1001.47 1001.80 1002.30 1002.96 1003.73 1004.57 1005.44 1006.29
1019.62 1019.09 1018.45 1017.74 1016.98 1016.20 1015.42 1014.64 1013.87 1013.11 1012.35 1011.59 1010.82 1010.04 1009.26 1008.50 1007.76 1007.07 1006.44 1005.89 1005.42 1005.02 1004.69 1004.41 1004.14 1003.87 1003.57 1003.23 1002.83 1002.40 1001.94 1001.49 1001.09 1000.77 1000.59 1000.57 1000.73 1001.07 1001.60 1002.27 1003.07 1003.95 1004.87 1005.78
1019.26 1018.62 1017.88 1017.08 1016.24 1015.41 1014.58 1013.77 1012.99 1012.22 1011.46 1010.70 1009.93 1009.15 1008.37 1007.59 1006.84 1006.12 1005.47 1004.89 1004.39 1003.97 1003.62 1003.32 1003.06 1002.80 1002.52 1002.21 1001.85 1001.46 1001.05 1000.65 1000.29 1000.02 999.87 999.87 1000.05 1000.41 1000.95 1001.65 1002.47 1003.38 1004.32 1005.27
1018.82 1018.09 1017.28 1016.42 1015.55 1014.68 1013.84 1013.02 1012.23 1011.45 1010.67 1009.90 1009.10 1008.30 1007.48 1006.67 1005.88 1005.13 1004.44 1003.83 1003.31 1002.87 1002.52 1002.23 1001.98 1001.74 1001.50 1001.23 1000.92 1000.58 1000.22 999.87 999.56 999.32 999.20 999.23 999.43 999.80 1000.36 1001.07 1001.90 1002.83 1003.80 1004.76
1018.32 1017.53 1016.68 1015.80 1014.91 1014.04 1013.19 1012.37 1011.57 1010.78 1009.98 1009.16 1008.32 1007.46 1006.59 1005.72 1004.88 1004.09 1003.36 1002.73 1002.20 1001.76 1001.42 1001.15 1000.93 1000.74 1000.54 1000.31 1000.06 999.77 999.45 999.15 998.87 998.67 998.58 998.63 998.85 999.25 999.81 1000.53 1001.38 1002.31 1003.29 1004.26
1017.78 1016.95 1016.09 1015.21 1014.33 1013.48 1012.65 1011.83 1011.02 1010.20 1009.35 1008.48 1007.58 1006.65 1005.71 1004.77 1003.87 1003.03 1002.28 1001.63 1001.10 1000.68 1000.37 1000.13 999.95 999.80 999.64 999.46 999.25 999.00 998.73 998.46 998.22 998.06 997.99 998.07 998.31 998.73 999.31 1000.04 1000.89 1001.83 1002.81 1003.78
1017.20 1016.37 1015.52 1014.67 1013.83 1013.00 1012.19 1011.37 1010.55 1009.69 1008.80 1007.86 1006.88 1005.87 1004.85 1003.85 1002.90 1002.02 1001.25 1000.59 1000.07 999.67 999.39 999.19 999.05 998.93 998.82 998.67 998.50 998.28 998.04 997.81 997.60 997.46 997.43 997.54 997.80 998.24 998.84 999.59 1000.45 1001.39 1002.36 1003.33
1016.63 1015.82 1015.00 1014.19 1013.40 1012.61 1011.81 1011.00 1010.15 1009.26 1008.31 1007.30 1006.24 1005.15 1004.06 1003.00 1002.00 1001.09 1000.30 999.65 999.14 998.76 998.51 998.34 998.22 998.14 998.05 997.93 997.78 997.58 997.37 997.16 996.98 996.87 996.87 997.02 997.32 997.78 998.41 999.17 1000.05 1000.99 1001.96 1002.91
1016.09 1015.32 1014.56 1013.81 1013.06 1012.30 1011.52 1010.70 1009.83 1008.89 1007.88 1006.80 1005.67 1004.51 1003.36 1002.24 1001.20 1000.27 999.47 998.82 998.32 997.96 997.72 997.57 997.47 997.40 997.32 997.21 997.07 996.89 996.69 996.50 996.35 996.28 996.32 996.51 996.85 997.35 998.00 998.79 999.68 1000.62 1001.58 1002.51
1015.64 1014.93 1014.23 1013.53 1012.82 1012.09 1011.32 1010.48 1009.58 1008.59 1007.51 1006.36 1005.17 1003.95 1002.74 1001.58 1000.52 999.57 998.76 998.11 997.62 997.26 997.02 996.87 996.78 996.70 996.61 996.50 996.36 996.19 996.01 995.85 995.73 995.70 995.79 996.02 996.40 996.94 997.63 998.43 999.32 1000.26 1001.20 1002.10
1015.32 1014.68 1014.03 1013.38 1012.70 1011.98 1011.20 1010.34 1009.38 1008.34 1007.20 1005.99 1004.73 1003.46 1002.21 1001.02 999.93 998.97 998.15 997.50 997.00 996.64 996.39 996.22 996.11 996.02 995.92 995.80 995.66 995.50 995.34 995.20 995.13 995.15 995.28 995.56 995.99 996.56 997.27 998.08 998.97 999.89 1000.80 1001.66
1015.17 1014.58 1013.98 1013.36 1012.70 1011.97 1011.16 1010.25 1009.24 1008.14 1006.94 1005.67 1004.36 1003.04 1001.75 1000.54 999.43 998.46 997.63 996.96 996.45 996.07 995.80 995.61 995.48 995.36 995.25 995.12 994.98 994.84 994.70 994.61 994.58 994.65 994.83 995.16 995.62 996.21 996.93 997.73 998.59 999.47 1000.34 1001.15
1015.18 1014.63 1014.07 1013.46 1012.78 1012.02 1011.17 1010.21 1009.14 1007.97 1006.71 1005.39 1004.04 1002.68 1001.37 1000.14 999.02 998.04 997.20 996.52 995.98 995.58 995.28 995.06 994.90 994.76 994.64 994.51 994.38 994.26 994.17 994.12 994.14 994.26 994.49 994.84 995.33 995.92 996.62 997.40 998.21 999.04 999.83 1000.57
1015.31 1014.80 1014.24 1013.62 1012.92 1012.12 1011.21 1010.20 1009.07 1007.84 1006.53 1005.16 1003.78 1002.40 1001.08 999.84 998.72 997.72 996.87 996.17 995.62 995.19 994.86 994.62 994.43 994.28 994.15 994.03 993.93 993.85 993.80 993.80 993.87 994.03 994.30 994.67 995.15 995.73 996.39 997.11 997.86 998.60 999.31 999.97
1015.52 1015.02 1014.46 1013.81 1013.07 1012.22 1011.26 1010.18 1009.00 1007.73 1006.39 1005.00 1003.60 1002.23 1000.91 999.67 998.55 997.56 996.71 996.00 995.43 994.97 994.63 994.36 994.16 994.00 993.88 993.78 993.71 993.66 993.66 993.71 993.83 994.03 994.31 994.69 995.15 995.69 996.29 996.92 997.58 998.22 998.84 999.42
Thickness
5706 5712 5715 5714 5716 5719 5711 5704 5691 5685 5675 5677 5680 5680 5678 5678 5679 5678 5676 5674 5671 5669 5668 5669 5670 5673 5677 5679 5678 5674 5668 5661 5655 5650 5645 5640 5635 5630 5626 5623 5622 5620 5620 5619
5707 5715 5715 5710 5713 5713 5702 5696 5688 5677 5666 5670 5671 5667 5662 5660 5660 5657 5655 5654 5654 5654 5653 5653 5653 5656 5662 5668 5670 5668 5663 5658 5653 5646 5641 5636 5632 5627 5622 5618 5616 5614 5613 5611
5690 5703 5702 5690 5697 5691 5677 5670 5669 5655 5648 5652 5651 5648 5641 5640 5639 5637 5637 5637 5636 5636 5636 5636 5638 5641 5646 5655 5661 5660 5657 5653 5648 5643 5637 5632 5628 5623 5618 5613 5610 5608 5606 5605
5684 5687 5676 5683 5695 5684 5661 5646 5645 5639 5632 5629 5627 5630 5627 5624 5619 5617 5616 5616 5616 5615 5617 5620 5622 5626 5632 5640 5647 5650 5650 5647 5643 5638 5633 5628 5623 5619 5614 5609 5605 5603 5601 5599
5670 5667 5673 5681 5677 5670 5656 5628 5624 5618 5614 5612 5613 5619 5620 5615 5607 5602 5600 5598 5597 5596 5597 5600 5603 5608 5614 5621 5629 5634 5638 5639 5638 5634 5628 5622 5618 5616 5611 5605 5601 5598 5596 5595
5668 5659 5650 5653 5659 5663 5652 5615 5607 5604 5601 5599 5598 5592 5597 5600 5593 5590 5587 5584 5582 5581 5581 5581 5583 5587 5592 5601 5608 5614 5621 5627 5630 5630 5625 5620 5616 5613 5608 5603 5598 5595 5592 5591
5660 5651 5646 5630 5639 5647 5624 5604 5595 5593 5589 5583 5575 5570 5574 5573 5570 5567 5565 5564 5562 5560 5558 5559 5560 5564 5568 5578 5586 5596 5605 5613 5619 5621 5621 5617 5613 5610 5606 5600 5594 5590 5589 5587
5648 5640 5627 5618 5615 5603 5591 5591 5586 5581 5575 5567 5562 5560 5557 5555 5552 5549 5546 5544 5540 5537 5536 5535 5534 5536 5542 5551 5564 5576 5587 5597 5606 5610 5612 5612 5608 5606 5603 5598 5591 5587 5584 5582
5628 5616 5606 5606 5598 5592 5586 5579 5574 5567 5561 5553 5548 5545 5542 5538 5535 5532 5529 5527 5524 5521 5520 5519 5516 5516 5520 5530 5542 5554 5566 5579 5589 5598 5602 5604 5603 5602 5599 5595 5590 5586 5583 5581
5613 5604 5600 5596 5590 5584 5576 5568 5562 5554 5547 5539 5532 5529 5525 5523 5521 5518 5517 5516 5515 5512 5510 5509 5506 5505 5507 5515 5523 5533 5545 5560 5573 5585 5592 5596 5598 5599 5598 5595 5590 5586 5582 5581
5598 5593 5589 5585 5578 5572 5566 5557 5549 5542 5533 5524 5517 5514 5512 5510 5510 5510 5512 5513 5511 5507 5506 5504 5501 5498 5499 5503 5510 5518 5530 5544 5558 5572 5584 5590 5593 5597 5599 5599 5596 5590 5586 5584
5582 5579 5571 5567 5565 5559 5548 5539 5530 5521 5515 5510 5502 5498 5499 5500 5501 5504 5506 5508 5505 5502 5500 5499 5496 5494 5494 5495 5501 5508 5519 5532 5547 5562 5576 5585 5589 5592 5594 5596 5594 5591 5589 5587
5580 5575 5567 5559 5551 5540 5528 5520 5513 5506 5499 5496 5495 5492 5492 5493 5494 5495 5497 5497 5496 5496 5494 5492 5490 5490 5491 5491 5495 5502 5511 5523 5537 5552 5568 5580 5586 5589 5588 5587 5587 5585 5585 5585
5574 5562 5550 5541 5531 5522 5513 5507 5503 5499 5495 5493 5492 5491 5490 5489 5489 5487 5486 5486 5486 5486 5486 5484 5484 5486 5488 5489 5491 5497 5506 5519 5532 5545 5562 5576 5584 5588 5590 5588 5584 5579 5579 5580
5560 5548 5537 5528 5519 5511 5503 5498 5495 5494 5493 5492 5490 5488 5486 5484 5482 5480 5478 5477 5475 5475 5475 5475 5476 5480 5483 5485 5488 5494 5504 5515 5528 5541 5556 5571 5580 5585 5588 5588 5586 5580 5573 5572
5547 5536 5524 5513 5506 5500 5494 5491 5489 5490 5490 5488 5486 5482 5479 5476 5475 5473 5470 5467 5465 5465 5465 5465 5468 5472 5476 5480 5484 5492 5502 5515 5527 5537 5552 5566 5575 5581 5584 5585 5583 5579 5577 5571
5530 5519 5510 5502 5498 5495 5490 5488 5487 5487 5486 5483 5481 5477 5474 5471 5468 5465 5463 5459 5456 5456 5456 5457 5461 5465 5470 5475 5481 5490 5501 5513 5526 5537 5550 5563 5572 5578 5583 5584 5582 5580 5577 5574
5517 5506 5498 5491 5490 5489 5489 5487 5485 5482 5479 5478 5476 5471 5467 5462 5458 5456 5453 5451 5448 5448 5448 5450 5454 5459 5465 5472 5480 5490 5501 5514 5525 5536 5550 5562 5572 5577 5581 5582 5581 5579 5575 5570
5511 5502 5496 5492 5489 5486 5484 5483 5481 5479 5476 5473 5470 5465 5460 5455 5451 5448 5445 5442 5441 5441 5442 5444 5448 5455 5462 5470 5481 5491 5504 5516 5528 5540 5552 5564 5572 5577 5579 5581 5580 5578 5575 5570
5507 5500 5495 5491 5487 5484 5482 5481 5479 5477 5475 5471 5467 5464 5460 5456 5451 5446 5441 5438 5437 5438 5439 5441 5446 5453 5462 5472 5485 5497 5509 5522 5533 5545 5556 5568 5575 5578 5579 5580 5579 5577 5574 5572
5502 5496 5490 5487 5484 5483 5480 5479 5478 5476 5474 5470 5467 5464 5461 5457 5452 5446 5441 5440 5441 5440 5441 5444 5450 5458 5467 5478 5492 5505 5517 5529 5540 5552 5563 5572 5577 5578 5579 5579 5577 5576 5574 5572
5496 5489 5485 5482 5481 5481 5481 5480 5478 5476 5474 5473 5472 5470 5467 5463 5458 5452 5448 5446 5447 5448 5450 5455 5461 5469 5478 5489 5502 5515 5527 5538 5550 5560 5569 5575 5578 5578 5578 5578 5576 5575 5574 5572
5489 5484 5481 5479 5479 5479 5481 5481 5480 5477 5476 5477 5477 5477 5475 5472 5468 5462 5461 5461 5461 5463 5465 5470 5476 5482 5491 5502 5514 5526 5537 5549 5559 5568 5573 5577 5578 5578 5578 5576 5575 5574 5573 5573
5486 5481 5479 5478 5478 5479 5481 5482 5481 5480 5480 5482 5484 5485 5485 5485 5484 5480 5477 5478 5480 5481 5484 5488 5492 5500 5508 5517 5527 5537 5548 5558 5566 5572 5576 5577 5577 5577 5576 5575 5575 5575 5575 5574
5483 5479 5477 5476 5476 5477 5477 5479 5481 5483 5485 5488 5492 5494 5496 5495 5495 5496 5497 5499 5500 5501 5505 5509 5514 5519 5525 5532 5540 5549 5557 5565 5572 5575 5577 5577 5577 5577 5577 5577 5577 5576 5576 5575
5479 5477 5475 5473 5472 5473 5475 5477 5479 5483 5486 5492 5497 5501 5505 5507 5508 5509 5511 5514 5518 5520 5523 5527 5531 5534 5539 5545 5551 5558 5565 5570 5574 5577 5578 5580 5581 5581 5581 5580 5579 5579 5578 5577
5477 5475 5474 5476 5477 5476 5476 5477 5479 5483 5488 5493 5498 5505 5510 5513 5516 5518 5521 5525 5529 5533 5536 5538 5540 5544 5548 5553 5559 5565 5571 5574 5577 5579 5581 5583 5584 5584 5584 5583 5582 5582 5581 5580